This demonstration page uses our WeatherBlox Daily Observations layout. Learn more.

Left ArrowRight Arrow

39.95238, -75.16362

Hourly Observations for May 24, 2018

Temp ( °F °C ) Dew Point ( °F °C ) Humidity (%) Winds ( mph kmh ) Pressure ( in mb ) Visibility ( mi km ) Precip ( " mm )
12:54 am 00:54 Clear 68 20 55 12.8 63 63 NW 3 6 30.06 1018 10 16 0.00 0.00
1:54 am 01:54 Clear 69 20.6 54 12.2 59 59 WNW 9 15 30.06 1018 10 16 0.00 0.00
2:54 am 02:54 Clear 66 18.9 54 12.2 65 65 NNW 8 13 30.06 1018 10 16 0.00 0.00
3:54 am 03:54 Clear 64 17.8 54 12.2 70 70 NNW 8 13 30.07 1018 10 16 0.00 0.00
4:54 am 04:54 Clear 63 17.2 53 11.7 70 70 NNW 7 11 30.08 1019 10 16 0.00 0.00
5:54 am 05:54 Sunny 64 17.8 53 11.7 68 68 NW 7 11 30.10 1019 9 14 0.00 0.00
6:54 am 06:54 Mostly Sunny 65 18.3 53 11.7 66 66 NW 7 11 30.13 1020 10 16 0.00 0.00
7:54 am 07:54 Mostly Sunny 69 20.6 51 10.6 53 53 N 14 22 30.14 1021 10 16 0.00 0.00
8:54 am 08:54 Sunny 71 21.7 52 11.1 51 51 N 17 28 30.15 1021 10 16 0.00 0.00
9:54 am 09:54 Sunny 74 23.3 51 10.6 45 45 N 12 19 30.16 1021 10 16 0.00 0.00
10:54 am 10:54 Sunny 77 25 40 4.4 26 26 N 12 19 30.16 1022 10 16 0.00 0.00
11:54 am 11:54 Sunny 79 26.1 42 5.6 27 27 N 14 22 30.16 1021 10 16 0.00 0.00
12:54 pm 12:54 Mostly Sunny 79 26.1 43 6.1 28 28 N 8 13 30.15 1021 10 16 0.00 0.00
1:54 pm 13:54 Mostly Sunny 81 27.2 44 6.7 27 27 NNE 6 9 30.14 1021 10 16 0.00 0.00
2:54 pm 14:54 Mostly Sunny 81 27.2 42 5.6 25 25 S 6 9 30.13 1020 10 16 0.00 0.00
3:54 pm 15:54 Sunny 82 27.8 42 5.6 24 24 SSW 8 13 30.12 1020 10 16 0.00 0.00
4:54 pm 16:54 Sunny 83 28.3 42 5.6 24 24 SSW 9 15 30.10 1019 10 16 0.00 0.00
5:54 pm 17:54 Sunny 83 28.3 43 6.1 24 24 SW 8 13 30.09 1019 10 16 0.00 0.00
6:54 pm 18:54 Sunny 82 27.8 46 7.8 28 28 SW 9 15 30.08 1019 10 16 0.00 0.00
7:54 pm 19:54 Sunny 79 26.1 48 8.9 34 34 SW 10 17 30.09 1019 10 16 0.00 0.00
8:54 pm 20:54 Clear 72 22.2 48 8.9 43 43 SSW 10 17 30.11 1020 10 16 0.00 0.00
9:54 pm 21:54 Clear 69 20.6 47 8.3 45 45 SSW 8 13 30.13 1020 10 16 0.00 0.00
10:54 pm 22:54 Clear 67 19.4 50 10 55 55 WSW 5 7 30.13 1020 10 16 0.00 0.00
11:54 pm 23:54 Clear 65 18.3 53 11.7 66 66 Calm 30.13 1020 10 16 0.00 0.00

Powered by AerisWeather